Year,Month,Day,Hour,Minute,Value (Times are PST for temperature in C)
2011,04,08,00,00,3.20
2011,04,08,00,01,3.20
2011,04,08,00,02,3.20
2011,04,08,00,03,3.20
2011,04,08,00,04,3.20
2011,04,08,00,05,3.20
2011,04,08,00,06,3.30
2011,04,08,00,07,3.30
2011,04,08,00,08,3.30
2011,04,08,00,09,3.30
2011,04,08,00,10,3.40
2011,04,08,00,11,3.40
2011,04,08,00,12,3.40
2011,04,08,00,13,3.40
2011,04,08,00,14,3.40
2011,04,08,00,15,3.40
2011,04,08,00,16,3.40
2011,04,08,00,17,3.50
2011,04,08,00,18,3.50
2011,04,08,00,19,3.40
2011,04,08,00,20,3.40
2011,04,08,00,21,3.40
2011,04,08,00,22,3.40
2011,04,08,00,23,3.50
2011,04,08,00,24,3.50
2011,04,08,00,25,3.40
2011,04,08,00,26,3.40
2011,04,08,00,27,3.40
2011,04,08,00,28,3.40
2011,04,08,00,29,3.40
2011,04,08,00,30,3.30
2011,04,08,00,31,3.30
2011,04,08,00,32,3.30
2011,04,08,00,33,3.30
2011,04,08,00,34,3.30
2011,04,08,00,35,3.20
2011,04,08,00,36,3.20
2011,04,08,00,37,3.20
2011,04,08,00,38,3.20
2011,04,08,00,39,3.20
2011,04,08,00,40,3.20
2011,04,08,00,41,3.20
2011,04,08,00,42,3.10
2011,04,08,00,43,3.10
2011,04,08,00,44,3.10
2011,04,08,00,45,3.10
2011,04,08,00,46,3.10
2011,04,08,00,47,3.10
2011,04,08,00,48,3.10
2011,04,08,00,49,3.10
2011,04,08,00,50,3.10
2011,04,08,00,51,3.10
2011,04,08,00,52,3.00
2011,04,08,00,53,3.00
2011,04,08,00,54,3.00
2011,04,08,00,55,3.00
2011,04,08,00,56,2.90
2011,04,08,00,57,2.90
2011,04,08,00,58,2.90
2011,04,08,00,59,2.90
2011,04,08,01,00,2.90
2011,04,08,01,01,2.90
2011,04,08,01,02,2.80
2011,04,08,01,03,2.80
2011,04,08,01,04,2.80
2011,04,08,01,05,2.80
2011,04,08,01,06,2.70
2011,04,08,01,07,2.70
2011,04,08,01,08,2.70
2011,04,08,01,09,2.70
2011,04,08,01,10,2.60
2011,04,08,01,11,2.60
2011,04,08,01,12,2.60
2011,04,08,01,13,2.60
2011,04,08,01,14,2.60
2011,04,08,01,15,2.50
2011,04,08,01,16,2.50
2011,04,08,01,17,2.40
2011,04,08,01,18,2.40
2011,04,08,01,19,2.40
2011,04,08,01,20,2.30
2011,04,08,01,21,2.30
2011,04,08,01,22,2.30
2011,04,08,01,23,2.30
2011,04,08,01,24,2.30
2011,04,08,01,25,2.30
2011,04,08,01,26,2.30
2011,04,08,01,27,2.20
2011,04,08,01,28,2.20
2011,04,08,01,29,2.20
2011,04,08,01,30,2.20
2011,04,08,01,31,2.20
2011,04,08,01,32,2.20
2011,04,08,01,33,2.20
2011,04,08,01,34,2.20
2011,04,08,01,35,2.10
2011,04,08,01,36,2.10
2011,04,08,01,37,2.10
2011,04,08,01,38,2.10
2011,04,08,01,39,2.10
2011,04,08,01,40,2.10
2011,04,08,01,41,2.10
2011,04,08,01,42,2.10
2011,04,08,01,43,2.10
2011,04,08,01,44,2.00
2011,04,08,01,45,2.00
2011,04,08,01,46,2.00
2011,04,08,01,47,2.00
2011,04,08,01,48,2.00
2011,04,08,01,49,2.00
2011,04,08,01,50,2.00
2011,04,08,01,51,2.00
2011,04,08,01,52,2.00
2011,04,08,01,53,1.90
2011,04,08,01,54,1.90
2011,04,08,01,55,1.90
2011,04,08,01,56,1.90
2011,04,08,01,57,1.90
2011,04,08,01,58,1.90
2011,04,08,01,59,1.90
2011,04,08,02,00,1.80
2011,04,08,02,01,1.80
2011,04,08,02,02,1.80
2011,04,08,02,03,1.80
2011,04,08,02,04,1.80
2011,04,08,02,05,1.80
2011,04,08,02,06,1.80
2011,04,08,02,07,1.80
2011,04,08,02,08,1.80
2011,04,08,02,09,1.80
2011,04,08,02,10,1.70
2011,04,08,02,11,1.70
2011,04,08,02,12,1.70
2011,04,08,02,13,1.70
2011,04,08,02,14,1.70
2011,04,08,02,15,1.70
2011,04,08,02,16,1.70
2011,04,08,02,17,1.70
2011,04,08,02,18,1.70
2011,04,08,02,19,1.60
2011,04,08,02,20,1.60
2011,04,08,02,21,1.60
2011,04,08,02,22,1.60
2011,04,08,02,23,1.60
2011,04,08,02,24,1.60
2011,04,08,02,25,1.60
2011,04,08,02,26,1.60
2011,04,08,02,27,1.60
2011,04,08,02,28,1.60
2011,04,08,02,29,1.60
2011,04,08,02,30,1.60
2011,04,08,02,31,1.60
2011,04,08,02,32,1.60
2011,04,08,02,33,1.60
2011,04,08,02,34,1.60
2011,04,08,02,35,1.60
2011,04,08,02,36,1.60
2011,04,08,02,37,1.60
2011,04,08,02,38,1.50
2011,04,08,02,39,1.50
2011,04,08,02,40,1.50
2011,04,08,02,41,1.50
2011,04,08,02,42,1.50
2011,04,08,02,43,1.50
2011,04,08,02,44,1.50
2011,04,08,02,45,1.50
2011,04,08,02,46,1.50
2011,04,08,02,47,1.50
2011,04,08,02,48,1.50
2011,04,08,02,49,1.50
2011,04,08,02,50,1.50
2011,04,08,02,51,1.50
2011,04,08,02,52,1.50
2011,04,08,02,53,1.50
2011,04,08,02,54,1.50
2011,04,08,02,55,1.50
2011,04,08,02,56,1.50
2011,04,08,02,57,1.50
2011,04,08,02,58,1.50
2011,04,08,02,59,1.50
2011,04,08,03,00,1.40
2011,04,08,03,01,1.40
2011,04,08,03,02,1.50
2011,04,08,03,03,1.50
2011,04,08,03,04,1.50
2011,04,08,03,05,1.50
2011,04,08,03,06,1.50
2011,04,08,03,07,1.50
2011,04,08,03,08,1.50
2011,04,08,03,09,1.50
2011,04,08,03,10,1.60
2011,04,08,03,11,1.60
2011,04,08,03,12,1.60
2011,04,08,03,13,1.60
2011,04,08,03,14,1.60
2011,04,08,03,15,1.60
2011,04,08,03,16,1.60
2011,04,08,03,17,1.60
2011,04,08,03,18,1.70
2011,04,08,03,19,1.70
2011,04,08,03,20,1.70
2011,04,08,03,21,1.70
2011,04,08,03,22,1.70
2011,04,08,03,23,1.70
2011,04,08,03,24,1.70
2011,04,08,03,25,1.70
2011,04,08,03,26,1.70
2011,04,08,03,27,1.70
2011,04,08,03,28,1.70
2011,04,08,03,29,1.70
2011,04,08,03,30,1.80
2011,04,08,03,31,1.80
2011,04,08,03,32,1.80
2011,04,08,03,33,1.80
2011,04,08,03,34,1.80
2011,04,08,03,35,1.80
2011,04,08,03,36,1.80
2011,04,08,03,37,1.80
2011,04,08,03,38,1.80
2011,04,08,03,39,1.70
2011,04,08,03,40,1.70
2011,04,08,03,41,1.70
2011,04,08,03,42,1.70
2011,04,08,03,43,1.60
2011,04,08,03,44,1.60
2011,04,08,03,45,1.60
2011,04,08,03,46,1.60
2011,04,08,03,47,1.60
2011,04,08,03,48,1.60
2011,04,08,03,49,1.60
2011,04,08,03,50,1.60
2011,04,08,03,51,1.60
2011,04,08,03,52,1.60
2011,04,08,03,53,1.50
2011,04,08,03,54,1.50
2011,04,08,03,55,1.50
2011,04,08,03,56,1.50
2011,04,08,03,57,1.40
2011,04,08,03,58,1.40
2011,04,08,03,59,1.40
2011,04,08,04,00,1.40
2011,04,08,04,01,1.40
2011,04,08,04,02,1.40
2011,04,08,04,03,1.40
2011,04,08,04,04,1.50
2011,04,08,04,05,1.50
2011,04,08,04,06,1.50
2011,04,08,04,07,1.50
2011,04,08,04,08,1.50
2011,04,08,04,09,1.50
2011,04,08,04,10,1.50
2011,04,08,04,11,1.50
2011,04,08,04,12,1.40
2011,04,08,04,13,1.40
2011,04,08,04,14,1.40
2011,04,08,04,15,1.40
2011,04,08,04,16,1.30
2011,04,08,04,17,1.30
2011,04,08,04,18,1.30
2011,04,08,04,19,1.30
2011,04,08,04,20,1.30
2011,04,08,04,21,1.30
2011,04,08,04,22,1.30
2011,04,08,04,23,1.20
2011,04,08,04,24,1.20
2011,04,08,04,25,1.20
2011,04,08,04,26,1.20
2011,04,08,04,27,1.20
2011,04,08,04,28,1.20
2011,04,08,04,29,1.20
2011,04,08,04,30,1.20
2011,04,08,04,31,1.20
2011,04,08,04,32,1.20
2011,04,08,04,33,1.20
2011,04,08,04,34,1.10
2011,04,08,04,35,1.10
2011,04,08,04,36,1.10
2011,04,08,04,37,1.10
2011,04,08,04,38,1.10
2011,04,08,04,39,1.20
2011,04,08,04,40,1.10
2011,04,08,04,41,1.20
2011,04,08,04,42,1.20
2011,04,08,04,43,1.20
2011,04,08,04,44,1.20
2011,04,08,04,45,1.10
2011,04,08,04,46,1.10
2011,04,08,04,47,1.10
2011,04,08,04,48,1.10
2011,04,08,04,49,1.10
2011,04,08,04,50,1.00
2011,04,08,04,51,1.00
2011,04,08,04,52,1.00
2011,04,08,04,53,0.90
2011,04,08,04,54,0.90
2011,04,08,04,55,0.90
2011,04,08,04,56,0.80
2011,04,08,04,57,0.80
2011,04,08,04,58,0.80
2011,04,08,04,59,0.80
2011,04,08,05,00,0.80
2011,04,08,05,01,0.80
2011,04,08,05,02,0.80
2011,04,08,05,03,0.80
2011,04,08,05,04,0.70
2011,04,08,05,05,0.70
2011,04,08,05,06,0.70
2011,04,08,05,07,0.70
2011,04,08,05,08,0.70
2011,04,08,05,09,0.70
2011,04,08,05,10,0.70
2011,04,08,05,11,0.70
2011,04,08,05,12,0.70
2011,04,08,05,13,0.70
2011,04,08,05,14,0.60
2011,04,08,05,15,0.60
2011,04,08,05,16,0.60
2011,04,08,05,17,0.60
2011,04,08,05,18,0.60
2011,04,08,05,19,0.60
2011,04,08,05,20,0.60
2011,04,08,05,21,0.60
2011,04,08,05,22,0.60
2011,04,08,05,23,0.60
2011,04,08,05,24,0.60
2011,04,08,05,25,0.60
2011,04,08,05,26,0.60
2011,04,08,05,27,0.60
2011,04,08,05,28,0.60
2011,04,08,05,29,0.60
2011,04,08,05,30,0.60
2011,04,08,05,31,0.60
2011,04,08,05,32,0.60
2011,04,08,05,33,0.60
2011,04,08,05,34,0.60
2011,04,08,05,35,0.60
2011,04,08,05,36,0.60
2011,04,08,05,37,0.60
2011,04,08,05,38,0.60
2011,04,08,05,39,0.60
2011,04,08,05,40,0.60
2011,04,08,05,41,0.60
2011,04,08,05,42,0.60
2011,04,08,05,43,0.60
2011,04,08,05,44,0.50
2011,04,08,05,45,0.50
2011,04,08,05,46,0.50
2011,04,08,05,47,0.50
2011,04,08,05,48,0.60
2011,04,08,05,49,0.60
2011,04,08,05,50,0.60
2011,04,08,05,51,0.60
2011,04,08,05,52,0.60
2011,04,08,05,53,0.60
2011,04,08,05,54,0.60
2011,04,08,05,55,0.60
2011,04,08,05,56,0.60
2011,04,08,05,57,0.60
2011,04,08,05,58,0.60
2011,04,08,05,59,0.50
2011,04,08,06,00,0.50
2011,04,08,06,01,0.50
2011,04,08,06,02,0.50
2011,04,08,06,03,0.50
2011,04,08,06,04,0.50
2011,04,08,06,05,0.40
2011,04,08,06,06,0.40
2011,04,08,06,07,0.40
2011,04,08,06,08,0.40
2011,04,08,06,09,0.40
2011,04,08,06,10,0.40
2011,04,08,06,11,0.30
2011,04,08,06,12,0.30
2011,04,08,06,13,0.30
2011,04,08,06,14,0.30
2011,04,08,06,15,0.30
2011,04,08,06,16,0.30
2011,04,08,06,17,0.30
2011,04,08,06,18,0.30
2011,04,08,06,19,0.30
2011,04,08,06,20,0.30
2011,04,08,06,21,0.30
2011,04,08,06,22,0.30
2011,04,08,06,23,0.30
2011,04,08,06,24,0.30
2011,04,08,06,25,0.20
2011,04,08,06,26,0.20
2011,04,08,06,27,0.30
2011,04,08,06,28,0.20
2011,04,08,06,29,0.20
2011,04,08,06,30,0.20
2011,04,08,06,31,0.20
2011,04,08,06,32,0.20
2011,04,08,06,33,0.20
2011,04,08,06,34,0.20
2011,04,08,06,35,0.20
2011,04,08,06,36,0.20
2011,04,08,06,37,0.20
2011,04,08,06,38,0.20
2011,04,08,06,39,0.20
2011,04,08,06,40,0.20
2011,04,08,06,41,0.20
2011,04,08,06,42,0.20
2011,04,08,06,43,0.20
2011,04,08,06,44,0.20
2011,04,08,06,45,0.20
2011,04,08,06,46,0.20
2011,04,08,06,47,0.20
2011,04,08,06,48,0.20
2011,04,08,06,49,0.20
2011,04,08,06,50,0.20
2011,04,08,06,51,0.20
2011,04,08,06,52,0.20
2011,04,08,06,53,0.20
2011,04,08,06,54,0.20
2011,04,08,06,55,0.20
2011,04,08,06,56,0.20
2011,04,08,06,57,0.20
2011,04,08,06,58,0.20
2011,04,08,06,59,0.20
2011,04,08,07,00,0.20
2011,04,08,07,01,0.20
2011,04,08,07,02,0.30
2011,04,08,07,03,0.30
2011,04,08,07,04,0.30
2011,04,08,07,05,0.30
2011,04,08,07,06,0.30
2011,04,08,07,07,0.30
2011,04,08,07,08,0.30
2011,04,08,07,09,0.30
2011,04,08,07,10,0.30
2011,04,08,07,11,0.30
2011,04,08,07,12,0.30
2011,04,08,07,13,0.40
2011,04,08,07,14,0.40
2011,04,08,07,15,0.40
2011,04,08,07,16,0.40
2011,04,08,07,17,0.40
2011,04,08,07,18,0.40
2011,04,08,07,19,0.40
2011,04,08,07,20,0.40
2011,04,08,07,21,0.40
2011,04,08,07,22,0.40
2011,04,08,07,23,0.40
2011,04,08,07,24,0.40
2011,04,08,07,25,0.40
2011,04,08,07,26,0.40
2011,04,08,07,27,0.40
2011,04,08,07,28,0.40
2011,04,08,07,29,0.40
2011,04,08,07,30,0.40
2011,04,08,07,31,0.40
2011,04,08,07,32,0.50
2011,04,08,07,33,0.50
2011,04,08,07,34,0.60
2011,04,08,07,35,0.60
2011,04,08,07,36,0.70
2011,04,08,07,37,0.70
2011,04,08,07,38,0.70
2011,04,08,07,39,0.70
2011,04,08,07,40,0.70
2011,04,08,07,41,0.80
2011,04,08,07,42,0.80
2011,04,08,07,43,0.80
2011,04,08,07,44,0.80
2011,04,08,07,45,0.80
2011,04,08,07,46,0.90
2011,04,08,07,47,0.90
2011,04,08,07,48,1.00
2011,04,08,07,49,1.00
2011,04,08,07,50,1.10
2011,04,08,07,51,1.10
2011,04,08,07,52,1.20
2011,04,08,07,53,1.20
2011,04,08,07,54,1.30
2011,04,08,07,55,1.30
2011,04,08,07,56,1.30
2011,04,08,07,57,1.40
2011,04,08,07,58,1.50
2011,04,08,07,59,1.50
2011,04,08,08,00,1.60
2011,04,08,08,01,1.60
2011,04,08,08,02,1.70
2011,04,08,08,03,1.70
2011,04,08,08,04,1.80
2011,04,08,08,05,1.90
2011,04,08,08,06,1.90
2011,04,08,08,07,2.00
2011,04,08,08,08,2.10
2011,04,08,08,09,2.10
2011,04,08,08,10,2.20
2011,04,08,08,11,2.20
2011,04,08,08,12,2.30
2011,04,08,08,13,2.30
2011,04,08,08,14,2.40
2011,04,08,08,15,2.40
2011,04,08,08,16,2.40
2011,04,08,08,17,2.50
2011,04,08,08,18,2.60
2011,04,08,08,19,2.60
2011,04,08,08,20,2.70
2011,04,08,08,21,2.70
2011,04,08,08,22,2.80
2011,04,08,08,23,2.90
2011,04,08,08,24,3.00
2011,04,08,08,25,3.10
2011,04,08,08,26,3.20
2011,04,08,08,27,3.20
2011,04,08,08,28,3.30
2011,04,08,08,29,3.40
2011,04,08,08,30,3.50
2011,04,08,08,31,3.60
2011,04,08,08,32,3.70
2011,04,08,08,33,3.80
2011,04,08,08,34,3.90
2011,04,08,08,35,4.10
2011,04,08,08,36,4.20
2011,04,08,08,37,4.30
2011,04,08,08,38,4.40
2011,04,08,08,39,4.60
2011,04,08,08,40,4.70
2011,04,08,08,41,4.80
2011,04,08,08,42,4.90
2011,04,08,08,43,5.00
2011,04,08,08,44,5.10
2011,04,08,08,45,5.20
2011,04,08,08,46,5.30
2011,04,08,08,47,5.40
2011,04,08,08,48,5.50
2011,04,08,08,49,5.60
2011,04,08,08,50,5.70
2011,04,08,08,51,5.80
2011,04,08,08,52,5.80
2011,04,08,08,53,5.90
2011,04,08,08,54,6.00
2011,04,08,08,55,6.10
2011,04,08,08,56,6.20
2011,04,08,08,57,6.30
2011,04,08,08,58,6.50
2011,04,08,08,59,6.50
2011,04,08,09,00,6.60
2011,04,08,09,01,6.70
2011,04,08,09,02,6.70
2011,04,08,09,03,6.80
2011,04,08,09,04,6.80
2011,04,08,09,05,6.90
2011,04,08,09,06,6.90
2011,04,08,09,07,7.00
2011,04,08,09,08,7.00
2011,04,08,09,09,7.10
2011,04,08,09,10,7.10
2011,04,08,09,11,7.10
2011,04,08,09,12,7.20
2011,04,08,09,13,7.20
2011,04,08,09,14,7.20
2011,04,08,09,15,7.30
2011,04,08,09,16,7.30
2011,04,08,09,17,7.40
2011,04,08,09,18,7.50
2011,04,08,09,19,7.50
2011,04,08,09,20,7.60
2011,04,08,09,21,7.60
2011,04,08,09,22,7.60
2011,04,08,09,23,7.60
2011,04,08,09,24,7.60
2011,04,08,09,25,7.60
2011,04,08,09,26,7.70
2011,04,08,09,27,7.70
2011,04,08,09,28,7.80
2011,04,08,09,29,7.90
2011,04,08,09,30,8.00
2011,04,08,09,31,8.00
2011,04,08,09,32,8.10
2011,04,08,09,33,8.10
2011,04,08,09,34,8.10
2011,04,08,09,35,8.10
2011,04,08,09,36,8.10
2011,04,08,09,37,8.00
2011,04,08,09,38,8.00
2011,04,08,09,39,8.00
2011,04,08,09,40,8.00
2011,04,08,09,41,8.00
2011,04,08,09,42,8.00
2011,04,08,09,43,8.10
2011,04,08,09,44,8.10
2011,04,08,09,45,8.10
2011,04,08,09,46,8.20
2011,04,08,09,47,8.20
2011,04,08,09,48,8.30
2011,04,08,09,49,8.30
2011,04,08,09,50,8.40
2011,04,08,09,51,8.50
2011,04,08,09,52,8.50
2011,04,08,09,53,8.50
2011,04,08,09,54,8.60
2011,04,08,09,55,8.60
2011,04,08,09,56,8.60
2011,04,08,09,57,8.60
2011,04,08,09,58,8.60
2011,04,08,09,59,8.60
2011,04,08,10,00,8.60
2011,04,08,10,01,8.50
2011,04,08,10,02,8.50
2011,04,08,10,03,8.50
2011,04,08,10,04,8.50
2011,04,08,10,05,8.50
2011,04,08,10,06,8.40
2011,04,08,10,07,8.40
2011,04,08,10,08,8.50
2011,04,08,10,09,8.50
2011,04,08,10,10,8.50
2011,04,08,10,11,8.60
2011,04,08,10,12,8.60
2011,04,08,10,13,8.60
2011,04,08,10,14,8.60
2011,04,08,10,15,8.60
2011,04,08,10,16,8.60
2011,04,08,10,17,8.60
2011,04,08,10,18,8.60
2011,04,08,10,19,8.60
2011,04,08,10,20,8.60
2011,04,08,10,21,8.60
2011,04,08,10,22,8.60
2011,04,08,10,23,8.60
2011,04,08,10,24,8.60
2011,04,08,10,25,8.60
2011,04,08,10,26,8.60
2011,04,08,10,27,8.70
2011,04,08,10,28,8.70
2011,04,08,10,29,8.60
2011,04,08,10,30,8.60
2011,04,08,10,31,8.60
2011,04,08,10,32,8.60
2011,04,08,10,33,8.60
2011,04,08,10,34,8.60
2011,04,08,10,35,8.60
2011,04,08,10,36,8.70
2011,04,08,10,37,8.70
2011,04,08,10,38,8.70
2011,04,08,10,39,8.80
2011,04,08,10,40,8.80
2011,04,08,10,41,8.90
2011,04,08,10,42,9.00
2011,04,08,10,43,9.00
2011,04,08,10,44,9.10
2011,04,08,10,45,9.10
2011,04,08,10,46,9.10
2011,04,08,10,47,9.10
2011,04,08,10,48,9.10
2011,04,08,10,49,9.10
2011,04,08,10,50,9.10
2011,04,08,10,51,9.10
2011,04,08,10,52,9.10
2011,04,08,10,53,9.00
2011,04,08,10,54,9.00
2011,04,08,10,55,9.00
2011,04,08,10,56,8.90
2011,04,08,10,57,8.90
2011,04,08,10,58,8.90
2011,04,08,10,59,8.80
2011,04,08,11,00,8.80
2011,04,08,11,01,8.80
2011,04,08,11,02,8.80
2011,04,08,11,03,8.80
2011,04,08,11,04,8.80
2011,04,08,11,05,8.80
2011,04,08,11,06,8.80
2011,04,08,11,07,8.90
2011,04,08,11,08,8.90
2011,04,08,11,09,9.00
2011,04,08,11,10,9.10
2011,04,08,11,11,9.20
2011,04,08,11,12,9.20
2011,04,08,11,13,9.20
2011,04,08,11,14,9.20
2011,04,08,11,15,9.20
2011,04,08,11,16,9.20
2011,04,08,11,17,9.20
2011,04,08,11,18,9.30
2011,04,08,11,19,9.30
2011,04,08,11,20,9.30
2011,04,08,11,21,9.30
2011,04,08,11,22,9.30
2011,04,08,11,23,9.30
2011,04,08,11,24,9.30
2011,04,08,11,25,9.30
2011,04,08,11,26,9.30
2011,04,08,11,27,9.20
2011,04,08,11,28,9.20
2011,04,08,11,29,9.10
2011,04,08,11,30,9.00
2011,04,08,11,31,9.00
2011,04,08,11,32,9.00
2011,04,08,11,33,9.00
2011,04,08,11,34,9.10
2011,04,08,11,35,9.10
2011,04,08,11,36,9.20
2011,04,08,11,37,9.20
2011,04,08,11,38,9.20
2011,04,08,11,39,9.20
2011,04,08,11,40,9.20
2011,04,08,11,41,9.30
2011,04,08,11,42,9.30
2011,04,08,11,43,9.30
2011,04,08,11,44,9.30
2011,04,08,11,45,9.40
2011,04,08,11,46,9.40
2011,04,08,11,47,9.40
2011,04,08,11,48,9.40
2011,04,08,11,49,9.40
2011,04,08,11,50,9.30
2011,04,08,11,51,9.30
2011,04,08,11,52,9.30
2011,04,08,11,53,9.30
2011,04,08,11,54,9.30
2011,04,08,11,55,9.30
2011,04,08,11,56,9.30
2011,04,08,11,57,9.30
2011,04,08,11,58,9.30
2011,04,08,11,59,9.30
2011,04,08,12,00,9.30
2011,04,08,12,01,9.30
2011,04,08,12,02,9.30
2011,04,08,12,03,9.40
2011,04,08,12,04,9.50
2011,04,08,12,05,9.50
2011,04,08,12,06,9.60
2011,04,08,12,07,9.70
2011,04,08,12,08,9.70
2011,04,08,12,09,9.70
2011,04,08,12,10,9.80
2011,04,08,12,11,9.80
2011,04,08,12,12,9.80
2011,04,08,12,13,9.90
2011,04,08,12,14,9.90
2011,04,08,12,15,9.90
2011,04,08,12,16,9.90
2011,04,08,12,17,9.90
2011,04,08,12,18,9.90
2011,04,08,12,19,10.00
2011,04,08,12,20,10.00
2011,04,08,12,21,10.10
2011,04,08,12,22,10.00
2011,04,08,12,23,9.90
2011,04,08,12,24,9.90
2011,04,08,12,25,9.80
2011,04,08,12,26,9.80
2011,04,08,12,27,9.80
2011,04,08,12,28,9.80
2011,04,08,12,29,9.80
2011,04,08,12,30,9.80
2011,04,08,12,31,9.80
2011,04,08,12,32,9.80
2011,04,08,12,33,9.90
2011,04,08,12,34,10.00
2011,04,08,12,35,10.10
2011,04,08,12,36,10.30
2011,04,08,12,37,10.30
2011,04,08,12,38,10.40
2011,04,08,12,39,10.50
2011,04,08,12,40,10.60
2011,04,08,12,41,10.60
2011,04,08,12,42,10.70
2011,04,08,12,43,10.70
2011,04,08,12,44,10.70
2011,04,08,12,45,10.60
2011,04,08,12,46,10.60
2011,04,08,12,47,10.50
2011,04,08,12,48,10.50
2011,04,08,12,49,10.40
2011,04,08,12,50,10.40
2011,04,08,12,51,10.30
2011,04,08,12,52,10.30
2011,04,08,12,53,10.20
2011,04,08,12,54,10.20
2011,04,08,12,55,10.20
2011,04,08,12,56,10.30
2011,04,08,12,57,10.30
2011,04,08,12,58,10.30
2011,04,08,12,59,10.30
2011,04,08,13,00,10.30
2011,04,08,13,01,10.30
2011,04,08,13,02,10.30
2011,04,08,13,03,10.40
2011,04,08,13,04,10.40
2011,04,08,13,05,10.40
2011,04,08,13,06,10.40
2011,04,08,13,07,10.40
2011,04,08,13,08,10.40
2011,04,08,13,09,10.40
2011,04,08,13,10,10.40
2011,04,08,13,11,10.30
2011,04,08,13,12,10.30
2011,04,08,13,13,10.30
2011,04,08,13,14,10.30
2011,04,08,13,15,10.20
2011,04,08,13,16,10.20
2011,04,08,13,17,10.10
2011,04,08,13,18,10.10
2011,04,08,13,19,10.00
2011,04,08,13,20,10.10
2011,04,08,13,21,10.10
2011,04,08,13,22,10.10
2011,04,08,13,23,10.20
2011,04,08,13,24,10.20
2011,04,08,13,25,10.20
2011,04,08,13,26,10.20
2011,04,08,13,27,10.20
2011,04,08,13,28,10.20
2011,04,08,13,29,10.30
2011,04,08,13,30,10.30
2011,04,08,13,31,10.40
2011,04,08,13,32,10.40
2011,04,08,13,33,10.40
2011,04,08,13,34,10.40
2011,04,08,13,35,10.40
2011,04,08,13,36,10.40
2011,04,08,13,37,10.30
2011,04,08,13,38,10.30
2011,04,08,13,39,10.30
2011,04,08,13,40,10.30
2011,04,08,13,41,10.40
2011,04,08,13,42,10.40
2011,04,08,13,43,10.40
2011,04,08,13,44,10.50
2011,04,08,13,45,10.50
2011,04,08,13,46,10.50
2011,04,08,13,47,10.50
2011,04,08,13,48,10.50
2011,04,08,13,49,10.50
2011,04,08,13,50,10.50
2011,04,08,13,51,10.60
2011,04,08,13,52,10.60
2011,04,08,13,53,10.70
2011,04,08,13,54,10.70
2011,04,08,13,55,10.80
2011,04,08,13,56,10.80
2011,04,08,13,57,10.80
2011,04,08,13,58,10.80
2011,04,08,13,59,10.80
2011,04,08,14,00,10.80
2011,04,08,14,01,10.90
2011,04,08,14,02,11.00
2011,04,08,14,03,11.00
2011,04,08,14,04,11.10
2011,04,08,14,05,11.10
2011,04,08,14,06,11.20
2011,04,08,14,07,11.20
2011,04,08,14,08,11.20
2011,04,08,14,09,11.20
2011,04,08,14,10,11.30
2011,04,08,14,11,11.30
2011,04,08,14,12,11.30
2011,04,08,14,13,11.40
2011,04,08,14,14,11.50
2011,04,08,14,15,11.50
2011,04,08,14,16,11.60
2011,04,08,14,17,11.70
2011,04,08,14,18,11.70
2011,04,08,14,19,11.70
2011,04,08,14,20,11.80
2011,04,08,14,21,11.80
2011,04,08,14,22,11.80
2011,04,08,14,23,11.80
2011,04,08,14,24,11.80
2011,04,08,14,25,11.90
2011,04,08,14,26,11.90
2011,04,08,14,27,11.90
2011,04,08,14,28,11.90
2011,04,08,14,29,11.90
2011,04,08,14,30,11.90
2011,04,08,14,31,12.00
2011,04,08,14,32,12.00
2011,04,08,14,33,12.10
2011,04,08,14,34,12.10
2011,04,08,14,35,12.10
2011,04,08,14,36,12.10
2011,04,08,14,37,12.20
2011,04,08,14,38,12.20
2011,04,08,14,39,12.30
2011,04,08,14,40,12.30
2011,04,08,14,41,12.30
2011,04,08,14,42,12.30
2011,04,08,14,43,12.30
2011,04,08,14,44,12.30
2011,04,08,14,45,12.30
2011,04,08,14,46,12.30
2011,04,08,14,47,12.30
2011,04,08,14,48,12.30
2011,04,08,14,49,12.30
2011,04,08,14,50,12.40
2011,04,08,14,51,12.40
2011,04,08,14,52,12.40
2011,04,08,14,53,12.50
2011,04,08,14,54,12.50
2011,04,08,14,55,12.50
2011,04,08,14,56,12.40
2011,04,08,14,57,12.40
2011,04,08,14,58,12.30
2011,04,08,14,59,12.30
2011,04,08,15,00,12.30
2011,04,08,15,01,12.40
2011,04,08,15,02,12.40
2011,04,08,15,03,12.40
2011,04,08,15,04,12.50
2011,04,08,15,05,12.40
2011,04,08,15,06,12.40
2011,04,08,15,07,12.40
2011,04,08,15,08,12.30
2011,04,08,15,09,12.30
2011,04,08,15,10,12.40
2011,04,08,15,11,12.40
2011,04,08,15,12,12.30
2011,04,08,15,13,12.40
2011,04,08,15,14,12.30
2011,04,08,15,15,12.30
2011,04,08,15,16,12.20
2011,04,08,15,17,12.20
2011,04,08,15,18,12.20
2011,04,08,15,19,12.20
2011,04,08,15,20,12.30
2011,04,08,15,21,12.30
2011,04,08,15,22,12.30
2011,04,08,15,23,12.30
2011,04,08,15,24,12.20
2011,04,08,15,25,12.20
2011,04,08,15,26,12.20
2011,04,08,15,27,12.20
2011,04,08,15,28,12.30
2011,04,08,15,29,12.30
2011,04,08,15,30,12.30
2011,04,08,15,31,12.40
2011,04,08,15,32,12.40
2011,04,08,15,33,12.40
2011,04,08,15,34,12.40
2011,04,08,15,35,12.40
2011,04,08,15,36,12.40
2011,04,08,15,37,12.40
2011,04,08,15,38,12.40
2011,04,08,15,39,12.30
2011,04,08,15,40,12.20
2011,04,08,15,41,12.20
2011,04,08,15,42,12.20
2011,04,08,15,43,12.20
2011,04,08,15,44,12.20
2011,04,08,15,45,12.20
2011,04,08,15,46,12.20
2011,04,08,15,47,12.20
2011,04,08,15,48,12.20
2011,04,08,15,49,12.20
2011,04,08,15,50,12.20
2011,04,08,15,51,12.20
2011,04,08,15,52,12.20
2011,04,08,15,53,12.10
2011,04,08,15,54,12.10
2011,04,08,15,55,12.00
2011,04,08,15,56,11.90
2011,04,08,15,57,11.90
2011,04,08,15,58,11.90
2011,04,08,15,59,11.90
2011,04,08,16,00,11.90
2011,04,08,16,01,11.90
2011,04,08,16,02,11.90
2011,04,08,16,03,11.90
2011,04,08,16,04,11.90
2011,04,08,16,05,11.90
2011,04,08,16,06,11.90
2011,04,08,16,07,11.90
2011,04,08,16,08,11.80
2011,04,08,16,09,11.80
2011,04,08,16,10,11.80
2011,04,08,16,11,11.80
2011,04,08,16,12,11.80
2011,04,08,16,13,11.90
2011,04,08,16,14,12.00
2011,04,08,16,15,12.00
2011,04,08,16,16,12.00
2011,04,08,16,17,12.00
2011,04,08,16,18,12.00
2011,04,08,16,19,12.00
2011,04,08,16,20,12.00
2011,04,08,16,21,12.00
2011,04,08,16,22,12.00
2011,04,08,16,23,12.10
2011,04,08,16,24,12.10
2011,04,08,16,25,12.10
2011,04,08,16,26,12.10
2011,04,08,16,27,12.10
2011,04,08,16,28,12.10
2011,04,08,16,29,12.10
2011,04,08,16,30,12.10
2011,04,08,16,31,12.10
2011,04,08,16,32,12.20
2011,04,08,16,33,12.10
2011,04,08,16,34,12.10
2011,04,08,16,35,12.00
2011,04,08,16,36,12.00
2011,04,08,16,37,11.90
2011,04,08,16,38,11.90
2011,04,08,16,39,11.90
2011,04,08,16,40,11.90
2011,04,08,16,41,12.00
2011,04,08,16,42,12.00
2011,04,08,16,43,12.00
2011,04,08,16,44,12.00
2011,04,08,16,45,12.00
2011,04,08,16,46,12.00
2011,04,08,16,47,12.00
2011,04,08,16,48,12.10
2011,04,08,16,49,12.10
2011,04,08,16,50,12.10
2011,04,08,16,51,12.10
2011,04,08,16,52,12.10
2011,04,08,16,53,12.10
2011,04,08,16,54,12.10
2011,04,08,16,55,12.10
2011,04,08,16,56,12.20
2011,04,08,16,57,12.20
2011,04,08,16,58,12.20
2011,04,08,16,59,12.30
2011,04,08,17,00,12.30
2011,04,08,17,01,12.40
2011,04,08,17,02,12.50
2011,04,08,17,03,12.50
2011,04,08,17,04,12.60
2011,04,08,17,05,12.60
2011,04,08,17,06,12.70
2011,04,08,17,07,12.70
2011,04,08,17,08,12.70
2011,04,08,17,09,12.70
2011,04,08,17,10,12.80
2011,04,08,17,11,12.80
2011,04,08,17,12,12.90
2011,04,08,17,13,12.90
2011,04,08,17,14,13.00
2011,04,08,17,15,13.00
2011,04,08,17,16,13.00
2011,04,08,17,17,12.90
2011,04,08,17,18,12.90
2011,04,08,17,19,12.80
2011,04,08,17,20,12.70
2011,04,08,17,21,12.70
2011,04,08,17,22,12.60
2011,04,08,17,23,12.50
2011,04,08,17,24,12.50
2011,04,08,17,25,12.40
2011,04,08,17,26,12.30
2011,04,08,17,27,12.30
2011,04,08,17,28,12.20
2011,04,08,17,29,12.20
2011,04,08,17,30,12.10
2011,04,08,17,31,12.00
2011,04,08,17,32,12.00
2011,04,08,17,33,11.90
2011,04,08,17,34,11.80
2011,04,08,17,35,11.70
2011,04,08,17,36,11.60
2011,04,08,17,37,11.60
2011,04,08,17,38,11.50
2011,04,08,17,39,11.40
2011,04,08,17,40,11.40
2011,04,08,17,41,11.30
2011,04,08,17,42,11.20
2011,04,08,17,43,11.20
2011,04,08,17,44,11.10
2011,04,08,17,45,11.10
2011,04,08,17,46,11.00
2011,04,08,17,47,11.00
2011,04,08,17,48,10.90
2011,04,08,17,49,10.90
2011,04,08,17,50,10.90
2011,04,08,17,51,10.90
2011,04,08,17,52,10.80